Regional Weather Roundup
Issued by NWS Midland/Odessa, TX

Skip options and go directly to product.
Home | Oldest Version | Next Version | Current Version | All | Text Only | Save Text | Print | Product List | Glossary On

Skip product version selection by date and time.   
789
ASUS44 KMAF 010402
RWRMAF
MIDLAND AREA WEATHER ROUNDUP
NATIONAL WEATHER SERVICE MIDLAND TX
1100 PM CDT SUN AUG 31 2014

...IN SOUTHWEST TEXAS AND SOUTHEAST NEW MEXICO...

CITY           SKY/WX    TMP DP  RH WIND       PRES   REMARKS
ALPINE         CLEAR     81  58  46 S13       30.09R
ANDREWS        FAIR      86  55  35 S17G24    29.92R
ARTESIA        NOT AVBL
BIG SPRING     CLEAR     85  61  44 SE18G28   29.93R
CARLSBAD       PTCLDY    87  43  21 W10       29.88R
DRYDEN           N/A     91  62  37 E14       29.90R
FORT STOCKTON  CLEAR     84  62  47 SE21G30   29.93R
GUAD PASS      CLEAR     83  42  23 W7        30.11R
HOBBS          CLEAR     84  54  34 S15G22    29.94R
MARFA          PTCLDY    77  50  38 S6        30.10R
MIDLAND AIRPK  NOT AVBL
MIDLAND INTL   CLEAR     86  60  41 S22       29.92R
ODESSA         CLEAR     86  57  37 S22G31    29.93R
PECOS          CLEAR     88  59  37 SE22G28   29.86R
PRESIDIO       FAIR      88  49  26 N3        29.89R
SEMINOLE       CLEAR     86  53  31 S15       29.93R
SNYDER         CLEAR     85  63  46 S17       29.90S
WINK           CLEAR     89  59  36 SE22G33   29.87R
$$
...OTHER STATIONS IN TEXAS...

CITY           SKY/WX    TMP DP  RH WIND       PRES   REMARKS
ABILENE        CLEAR     86  63  45 S14       29.90R
AMARILLO       CLEAR     84  55  36 S17       29.86R
AUSTIN         PTCLDY    81  73  76 SE12      29.94R
BROWNSVILLE    CLEAR     82  79  90 E7        29.93R
CORPUS CHRISTI PTCLDY    82  77  84 SE10      29.93R
DALLAS FTW     CLEAR     85  71  63 S16G24    29.87S
DEL RIO        CLEAR     91  65  41 SE9       29.85R
EL PASO        PTCLDY    89  43  20 W9        29.96R
HOUSTON INT    MOCLDY    77  75  94 SE7       29.97R
LUBBOCK        CLEAR     84  56  38 S17       29.89R
SAN ANGELO     CLEAR     85  64  49 S7        29.92R
SAN ANTONIO    PTCLDY    83  72  69 SE18      29.95R
WACO           CLEAR     83  70  64 S20G25    29.92R
WICHITA FALLS  NOT AVBL
$$
...OTHER LOCATIONS IN NEW MEXICO...

CITY           SKY/WX    TMP DP  RH WIND       PRES   REMARKS
ALAMAGORDO     CLEAR     77  37  24 S5        29.97R
ALBUQUERQUE    CLEAR     83  35  18 W13       30.02R
CANNON AFB     CLEAR     73  46  37 SW7       29.93S
CLOVIS           N/A     75  43  31 SW10      29.95S
HOLLOMAN AFB   CLEAR     80  40  23 SW6       29.95R
ROSWELL        CLEAR     83  45  26 W9        29.89R
RUIDOSO        CLEAR     66  39  37 SW8       30.19S
SANTA FE       CLEAR     66  33  29 NW7       30.08R
TRUTH OR CONSE CLEAR     81  35  19 SW8       30.00R
TUCUMCARI      CLEAR     80  38  22 SW13      29.86R
$$

USA.gov is the U.S. government's official web portal to all federal, state and local government web resources and services.